Home > Weather > Marseille > Past weeks

Flag for France Past Weather in Marseille, Provence-Alpes-Côte d'Azur, France — Yesterday and Last 2 Weeks

Now
79 °F

Sunny.


Feels Like: 80 °F
Forecast: 74 / 90 °F
Wind: 3 mph from North

Location: Marseille / Marignane

Current Time: Jul 25, 2016 at 10:22:13 AM

Latest Report: Jul 25, 2016 at 10:00 AM


Visibility: 10 mi

Pressure: 30.01 "Hg

Humidity: 54%

Dew Point: 61 °F

Location of MarseilleLocation

Past Weather in Marseille — Graph

°F

Marseille Temperature Yesterday

Maximum temperature yesterday: 91 °F (at 4:30 PM)
Minimum temperature yesterday: 64 °F (at 5:00 AM)
Average temperature yesterday: 78 °F

High & Low Weather Summary for the Past Weeks

 TemperatureHumidityPressure
High95 °F (Jul 11, 2:00 PM)89% (Jul 11, 12:30 AM)30.18 "Hg (Jul 11, 12:30 AM)
Low61 °F (Jul 16, 4:00 AM)19% (Jul 19, 3:30 PM)29.86 "Hg (Jul 12, 3:30 PM)
Average75 °F55%30.02 "Hg
* Reported Jul 10 9:00 AM — Jul 25 9:00 AM, Marseille, Weather by CustomWeather, © 2016

Note: Actual official high and low records may vary slightly from our data, if they occured in-between our weather recording intervals... More about our weather records

Advertising

Marseille Weather History for the Previous 24 Hours

Scroll right to see more
 ConditionsComfort  
Time TempWeatherWind HumidityBarometerVisibility
9:00 AM
Mon, Jul 25
75 °FPassing clouds.6 mph65%30.01 "HgN/A
8:30 AM75 °FPassing clouds.6 mph65%30.01 "HgN/A
8:00 AM72 °FPassing clouds.7 mph69%30.01 "HgN/A
7:30 AM70 °FPassing clouds.5 mph73%30.01 "HgN/A
7:00 AM70 °FClear.3 mph78%30.01 "Hg10 mi
6:30 AM68 °FPassing clouds.5 mph73%30.01 "HgN/A
6:00 AM70 °FClear.3 mph73%30.01 "Hg10 mi
5:30 AM68 °FClear.5 mph73%30.01 "Hg10 mi
5:00 AM72 °FClear.3 mph69%30.01 "Hg10 mi
4:30 AM72 °FClear.5 mph69%30.01 "Hg10 mi
4:00 AM72 °FClear.3 mph69%30.01 "Hg10 mi
3:30 AM72 °FClear.5 mph69%30.01 "Hg10 mi
3:00 AM72 °FClear.7 mph69%30.01 "Hg10 mi
2:30 AM72 °FClear.7 mph73%30.01 "Hg10 mi
2:00 AM75 °FPassing clouds.3 mph57%30.01 "HgN/A
1:30 AM73 °FClear.3 mph61%30.01 "Hg10 mi
1:00 AM73 °FPassing clouds.3 mph61%30.01 "HgN/A
12:30 AM75 °FPassing clouds.6 mph57%30.01 "HgN/A
12:00 AM75 °FPassing clouds.8 mph57%30.01 "HgN/A
11:30 PM
Sun, Jul 24
75 °FPassing clouds.8 mph57%30.01 "HgN/A
11:00 PM79 °FClear.No wind51%30.01 "Hg10 mi
10:30 PM79 °FPassing clouds.3 mph54%30.01 "HgN/A
10:00 PM81 °FSunny.10 mph48%30.01 "Hg10 mi
9:30 PM82 °FSunny.8 mph45%30.01 "Hg10 mi
9:00 PM82 °FSunny.6 mph48%30.01 "Hg10 mi
8:30 PM84 °FSunny.7 mph45%30.01 "Hg10 mi
8:00 PM86 °FSunny.10 mph43%29.98 "Hg10 mi
7:30 PM86 °FSunny.10 mph43%29.98 "Hg10 mi
7:00 PM88 °FPassing clouds.15 mph40%29.98 "HgN/A
6:30 PM91 °FSunny.9 mph34%29.98 "Hg10 mi
6:00 PM90 °FPassing clouds.10 mph36%29.95 "HgN/A
5:30 PM90 °FSunny.14 mph41%29.95 "Hg10 mi
5:00 PM91 °FSunny.14 mph36%29.95 "Hg10 mi
4:30 PM91 °FSunny.16 mph38%29.95 "Hg10 mi
4:00 PM90 °FSunny.15 mph43%29.95 "Hg10 mi
3:30 PM90 °FPassing clouds.12 mph38%29.95 "HgN/A
3:00 PM90 °FSunny.10 mph41%29.98 "Hg10 mi
2:30 PM88 °FSunny.10 mph40%29.98 "Hg10 mi
2:00 PM88 °FSunny.10 mph43%29.98 "Hg10 mi
1:30 PM86 °FSunny.10 mph46%29.98 "Hg10 mi
1:00 PM86 °FPassing clouds.9 mph46%29.98 "HgN/A
12:30 PM84 °FPassing clouds.7 mph51%29.98 "HgN/A
12:00 PM84 °FPassing clouds.9 mph48%29.98 "HgN/A
11:30 AM82 °FSunny.9 mph51%29.98 "Hg10 mi
11:00 AM81 °FSunny.10 mph51%30.01 "Hg10 mi
10:30 AM79 °FSunny.12 mph58%30.01 "Hg10 mi
10:00 AM77 °FSunny.9 mph65%30.01 "Hg10 mi
Weather by CustomWeather, © 2016

See weather overviewHow to use our weather pages